Track STARLINK-1848 now! 10-day predictions STARLINK-1848 is classified as:
1 46740U 20074B 21108.59180454 .00001333 00000-0 10831-3 0 9998 2 46740 53.0523 64.7242 0000335 90.8298 269.2729 15.06400247 27402